Find Starlink 32301

NORAD ID: 61664 Int'l Des: 2024-193 Owner: SPXS Country: US Constellation: starlink operational
LEOCIRCULAR

リアルタイム位置

3D地球を読み込み中...

Starlink 32301について

説明を読み込み中...

次回通過

Passes for default location (London). Set your location on the main map for personalized predictions.

高度履歴

Loading altitude history...

軌道要素

1 61664U 24193D 26123.48939463 .00001644 00000-0 64719-4 0 9998
2 61664 53.1590 196.6860 0001058 61.7754 298.3354 15.31698515 84918
Epoch: May 3, 2026 • Age: 14 hours

現在のステータス

高度 482.9 km
速度 7.62 km/s
衛星直下点 -36.95°S, 86.48°W
打ち上げ日 Oct 26, 2024
運用期間 1.5 years
タイプ internet

技術仕様

分類 Payload
質量 730.00 kg
乾燥質量 700.00 kg
総質量 730.00 kg
長さ 0.30 m
直径 4.10 m
スパン 29.00 m
形状 Box + pan
製造者 SPXS
バスタイプ Starlink V2M
フェーズステータス In Orbit
所有者/国 SPXS/US

Most Searched